FW3646 Weather Reports


time (UTC)temp
C
wind
direction
speed
KPH
gust
KPH
rain 1hr
cm
rain 24hr
cm
rain mn
cm
humidity
%
barometer
mb
20260506014326 13 177 0.0 0.0 0.00 0.08 0.03 91 1009.9
20260506013816 13 177 1.6 3.2 0.00 0.08 0.03 91 1009.9
20260506013313 13 177 1.6 4.8 0.00 0.08 0.03 91 1009.9
20260506012809 13 177 1.6 4.8 0.00 0.08 0.03 91 1010.0
20260506012311 13 166 0.0 8.0 0.00 0.08 0.03 91 1010.0
20260506011808 13 166 0.0 8.0 0.00 0.08 0.03 90 1010.0
20260506011310 13 184 0.0 0.0 0.00 0.08 0.03 90 1010.1
20260506010756 13 184 0.0 1.6 0.00 0.08 0.03 90 1010.1
20260506010507 14 184 0.0 4.8 0.00 0.08 0.03 90 1010.1
20260506005737 14 184 0.0 4.8 0.00 0.08 0.03 90 1010.1
20260506005238 14 184 0.0 1.6 0.00 0.08 0.03 90 1010.1
20260506004734 14 184 0.0 1.6 0.00 0.08 0.03 90 1010.1
20260506004227 14 184 1.6 4.8 0.00 0.08 0.03 89 1010.1
20260506003726 14 184 1.6 6.4 0.00 0.08 0.03 89 1009.9
20260506003216 14 184 0.0 6.4 0.00 0.08 0.03 89 1009.9
20260506002709 14 297 0.0 0.0 0.00 0.08 0.03 88 1009.9
20260506002209 14 297 0.0 0.0 0.00 0.08 0.03 88 1009.9
20260506001938 14 297 0.0 0.0 0.00 0.08 0.03 88 1010.0
20260506001149 14 297 0.0 0.0 0.00 0.08 0.03 88 1010.1
20260506000638 14 297 0.0 0.0 0.00 0.08 0.03 88 1010.2
20260506000135 14 297 0.0 0.0 0.00 0.08 0.03 88 1009.6
20260505235614 14 297 0.0 0.0 0.00 0.08 0.03 88 1010.6
20260505235119 14 297 0.0 0.0 0.00 0.08 0.03 88 1010.6
20260505234613 14 297 0.0 0.0 0.00 0.08 0.03 88 1010.7
20260505234113 14 297 0.0 0.0 0.00 0.08 0.03 88 1010.7
20260505233615 14 297 0.0 0.0 0.00 0.08 0.03 88 1010.7
20260505233114 14 297 0.0 0.0 0.03 0.08 0.03 88 1010.7
20260505232613 14 297 0.0 1.6 0.03 0.08 0.03 88 1010.7
20260505232110 14 297 0.0 1.6 0.03 0.08 0.03 88 1010.6
20260505231544 14 298 0.0 6.4 0.03 0.08 0.03 88 1010.5
20260505231309 14 298 0.0 6.4 0.03 0.08 0.03 88 1010.3
20260505230537 14 247 0.0 1.6 0.03 0.08 0.03 88 1010.3
20260505230036 14 231 0.0 0.0 0.03 0.08 0.03 88 1010.3
20260505225809 14 231 0.0 0.0 0.03 0.08 0.03 88 1010.5
20260505225011 14 231 0.0 0.0 0.03 0.08 0.03 88 1010.5
20260505224510 14 232 0.0 0.0 0.03 0.08 0.03 88 1010.5
20260505224008 15 231 0.0 0.0 0.03 0.08 0.03 88 1010.5
20260505223742 14 231 0.0 0.0 0.03 0.08 0.03 88 1010.3
20260505223005 15 231 0.0 0.0 0.00 0.05 0.00 88 1010.2
20260505222728 15 231 0.0 0.0 0.00 0.05 0.00 88 1010.1
20260505221955 15 231 0.0 1.6 0.00 0.05 0.00 88 1009.4
20260505221722 15 232 0.0 3.2 0.00 0.05 0.00 88 1010.1
20260505220943 15 232 0.0 3.2 0.00 0.05 0.00 88 1010.1
20260505220442 15 231 0.0 3.2 0.00 0.05 0.00 88 1010.1
20260505215942 15 237 1.6 4.8 0.00 0.05 0.05 88 1009.9
20260505215439 15 294 3.2 8.0 0.00 0.05 0.05 88 1009.8
20260505214939 15 286 1.6 9.7 0.00 0.05 0.05 88 1009.5
20260505214436 15 292 1.6 9.7 0.00 0.05 0.05 88 1009.6
20260505213938 15 301 1.6 6.4 0.00 0.05 0.05 88 1009.4
20260505213435 15 322 0.0 4.8 0.00 0.05 0.05 88 1009.4
20260505212938 15 231 0.0 0.0 0.00 0.05 0.05 88 1009.2
20260505212450 15 211 0.0 0.0 0.00 0.05 0.05 89 1009.1
20260505211914 15 211 0.0 0.0 0.00 0.05 0.05 89 1009.1
20260505211651 15 211 0.0 0.0 0.00 0.05 0.05 89 1009.1
20260505210914 15 211 0.0 0.0 0.00 0.05 0.05 89 1009.0
20260505210415 15 211 0.0 0.0 0.00 0.05 0.05 88 1009.0
20260505205910 15 211 0.0 0.0 0.00 0.05 0.05 88 1009.0
20260505205410 15 211 0.0 0.0 0.00 0.05 0.05 88 1009.0
20260505205205 15 211 0.0 0.0 0.00 0.05 0.05 88 1009.0
20260505204630 15 210 0.0 0.0 0.00 0.05 0.05 88 1008.8
20260505204119 15 211 0.0 3.2 0.00 0.05 0.05 88 1008.8
20260505203338 15 211 1.6 4.8 0.00 0.05 0.05 88 1008.7
20260505202836 15 211 0.0 4.8 0.00 0.05 0.05 87 1008.6
20260505202608 16 97 0.0 1.6 0.00 0.05 0.05 87 1008.5
20260505201837 16 97 0.0 0.0 0.00 0.05 0.05 86 1008.4
20260505201335 16 97 0.0 1.6 0.00 0.05 0.05 86 1008.2
20260505200836 16 85 0.0 1.6 0.00 0.05 0.05 84 1008.1
20260505200336 16 50 0.0 1.6 0.00 0.05 0.05 83 1008.0
20260505195837 16 47 0.0 0.0 0.03 0.05 0.05 82 1007.9
20260505195337 16 47 0.0 0.0 0.03 0.05 0.05 81 1007.8
20260505194838 16 47 0.0 0.0 0.03 0.05 0.05 81 1007.7
20260505194336 16 47 0.0 0.0 0.03 0.05 0.05 81 1007.8
20260505193836 16 47 0.0 0.0 0.03 0.05 0.05 81 1007.7
20260505193337 16 47 0.0 0.0 0.03 0.05 0.05 80 1007.6
20260505193109 16 47 0.0 0.0 0.05 0.05 0.05 80 1007.6
20260505192336 16 47 0.0 0.0 0.05 0.05 0.05 80 1007.5
20260505191837 16 47 0.0 3.2 0.05 0.05 0.05 80 1007.5
20260505191335 17 47 0.0 3.2 0.05 0.05 0.05 80 1007.5
20260505190835 17 54 0.0 1.6 0.05 0.05 0.05 80 1007.3
20260505190335 17 53 0.0 4.8 0.05 0.05 0.05 79 1007.1
20260505185835 17 53 1.6 4.8 0.05 0.05 0.05 79 1007.1
20260505185334 17 79 1.6 6.4 0.05 0.05 0.05 77 1007.0
20260505184837 17 75 1.6 6.4 0.05 0.05 0.05 76 1007.0
20260505184308 18 83 0.0 3.2 0.05 0.05 0.05 74 1007.1
20260505183809 18 196 0.0 3.2 0.05 0.05 0.05 73 1007.3
20260505183305 18 196 0.0 3.2 0.05 0.05 0.05 71 1007.3
20260505182808 18 236 0.0 3.2 0.03 0.03 0.03 69 1007.3
20260505182308 18 243 0.0 0.0 0.03 0.03 0.03 68 1007.3
20260505181737 18 243 0.0 4.8 0.00 0.00 0.00 66 1007.1
20260505181215 19 248 0.0 4.8 0.00 0.00 0.00 65 1007.1
20260505180711 19 232 1.6 8.0 0.00 0.00 0.00 62 1007.0
20260505180211 19 253 3.2 8.0 0.00 0.00 0.00 60 1006.9
20260505175700 20 256 4.8 12.9 0.00 0.00 0.00 59 1006.7
20260505175206 20 216 6.4 16.1 0.00 0.00 0.00 58 1006.7
20260505174650 20 260 6.4 19.3 0.00 0.00 0.00 57 1006.5
20260505174150 20 253 6.4 20.9 0.00 0.00 0.00 56 1006.5
20260505173650 20 33 8.0 20.9 0.00 0.00 0.00 56 1006.5
20260505173149 20 262 9.7 22.5 0.00 0.00 0.00 55 1006.4
20260505172924 20 288 8.0 22.5 0.00 0.00 0.00 55 1006.4
20260505172419 21 258 8.0 25.7 0.00 0.00 0.00 54 1006.4
20260505171651 21 266 8.0 25.7 0.00 0.00 0.00 53 1006.3
20260505171142 21 207 9.7 27.4 0.00 0.00 0.00 53 1006.2
20260505170642 22 275 9.7 27.4 0.00 0.00 0.00 50 1006.1
20260505170138 23 255 9.7 33.8 0.00 0.00 0.00 47 1006.0
20260505165652 25 175 0.0 1.6 0.00 0.00 0.00 36 1005.4
20260505165643 25 291 3.2 33.8 0.00 0.00 0.00 41 1005.9
20260505164609 25 175 0.0 1.6 0.00 0.00 0.00 35 1005.3
20260505164043 25 175 0.0 1.6 0.00 0.00 0.00 35 1005.2
20260505163537 26 175 0.0 0.0 0.00 0.00 0.00 34 1005.0
20260505163038 26 175 0.0 0.0 0.00 0.00 0.00 34 1005.0
20260505162808 26 175 0.0 0.0 0.00 0.00 0.00 34 1005.0
20260505162037 26 175 0.0 0.0 0.00 0.00 0.00 34 1005.1
20260505161535 26 175 0.0 0.0 0.00 0.00 0.00 34 1005.2
20260505161036 26 175 0.0 0.0 0.00 0.00 0.00 34 1005.2
20260505160758 26 175 0.0 1.6 0.00 0.00 0.00 33 1005.2
20260505153001 26 193 1.6 4.8 0.00 0.00 0.00 33 1005.3
20260505152500 26 152 0.0 3.2 0.00 0.00 0.00 31 1005.4
20260505151957 26 167 1.6 6.4 0.00 0.00 0.00 33 1005.4
20260505151446 26 167 1.6 6.4 0.00 0.00 0.00 31 1005.4
20260505150945 27 181 1.6 6.4 0.00 0.00 0.00 31 1005.4
20260505150446 27 192 1.6 8.0 0.00 0.00 0.00 31 1005.5
20260505124835 28 285 3.2 12.9 0.00 0.00 0.00 34 1006.5
20260505124600 28 186 3.2 12.9 0.00 0.00 0.00 33 1006.5
20260505123837 27 149 1.6 6.4 0.00 0.00 0.00 35 1006.5
20260505123333 27 71 3.2 11.3 0.00 0.00 0.00 35 1006.7
20260505123059 27 348 3.2 11.3 0.00 0.00 0.00 34 1006.7
20260505122556 28 23 3.2 9.7 0.00 0.00 0.00 34 1006.8
20260505121816 28 347 3.2 8.0 0.00 0.00 0.00 36 1007.0
20260505121315 28 73 3.2 8.0 0.00 0.00 0.00 35 1007.0
20260505120809 28 239 3.2 12.9 0.00 0.00 0.00 37 1007.1
20260505120310 28 21 3.2 12.9 0.00 0.00 0.00 36 1007.3
20260505115809 28 10 1.6 8.0 0.00 0.00 0.00 37 1007.3
20260505115308 27 297 1.6 8.0 0.00 0.00 0.00 38 1007.4
20260505115042 27 280 3.2 6.4 0.00 0.00 0.00 40 1007.4
20260505114535 27 359 3.2 12.9 0.00 0.00 0.00 39 1007.5
20260505113805 27 308 1.6 12.9 0.00 0.00 0.00 38 1007.6
20260505113306 27 304 1.6 6.4 0.00 0.00 0.00 40 1007.6
20260505112808 27 4 1.6 8.0 0.00 0.00 0.00 39 1007.8
20260505112307 27 4 1.6 8.0 0.00 0.00 0.00 38 1007.7
20260505111803 27 275 1.6 6.4 0.00 0.00 0.00 40 1007.9
20260505111528 27 291 3.2 9.7 0.00 0.00 0.00 39 1007.9
20260505110745 27 328 4.8 9.7 0.00 0.00 0.00 40 1007.9
20260505110243 27 324 3.2 8.0 0.00 0.00 0.00 41 1008.0
20260505101738 25 270 1.6 4.8 0.00 0.00 0.00 47 1008.5
20260505101235 25 304 1.6 4.8 0.00 0.00 0.00 48 1008.5
20260505100715 25 310 1.6 4.8 0.00 0.00 0.00 48 1008.6
20260505100208 25 293 1.6 8.0 0.00 0.00 0.00 48 1008.6
20260505095708 25 4 3.2 8.0 0.00 0.00 0.00 48 1008.7
20260505095435 24 27 3.2 8.0 0.00 0.00 0.00 48 1008.7
20260505094944 24 315 3.2 8.0 0.00 0.00 0.00 49 1008.8
20260505094204 24 354 3.2 6.4 0.00 0.00 0.00 49 1008.8
20260505093703 25 293 3.2 6.4 0.00 0.00 0.00 48 1008.9
20260505093201 24 122 3.2 6.4 0.00 0.00 0.00 49 1008.9
20260505092701 25 47 3.2 6.4 0.00 0.00 0.00 47 1009.0
20260505092423 25 22 3.2 8.0 0.00 0.00 0.00 47 1009.1
20260505091653 25 14 1.6 8.0 0.00 0.00 0.00 48 1009.1
20260505091153 25 45 1.6 8.0 0.00 0.00 0.00 49 1009.2
20260505090653 25 303 1.6 8.0 0.00 0.00 0.00 49 1009.3
20260505090153 24 232 1.6 6.4 0.00 0.00 0.00 53 1009.4
20260505085653 23 244 1.6 6.4 0.00 0.00 0.00 54 1009.4
20260505085151 23 61 3.2 8.0 0.00 0.00 0.00 52 1009.5
20260505084649 23 18 1.6 8.0 0.00 0.00 0.00 53 1009.5
20260505084147 23 14 0.0 6.4 0.00 0.00 0.00 54 1009.6
20260505083647 23 140 1.6 6.4 0.00 0.00 0.00 56 1009.6
20260505083147 22 161 1.6 6.4 0.00 0.00 0.00 57 1009.6
20260505082643 22 162 1.6 6.4 0.00 0.00 0.00 58 1009.5
20260505082143 21 280 3.2 9.7 0.00 0.00 0.00 58 1009.6
20260505081914 21 37 3.2 9.7 0.00 0.00 0.00 58 1009.6
20260505081409 21 310 1.6 6.4 0.00 0.00 0.00 57 1009.6
20260505080641 21 305 1.6 6.4 0.00 0.00 0.00 58 1009.7
20260505080416 21 344 1.6 6.4 0.00 0.00 0.00 58 1009.8
20260505075637 21 189 1.6 6.4 0.00 0.00 0.00 59 1009.8
20260505075404 20 222 1.6 4.8 0.00 0.00 0.00 61 1009.8
20260505074635 20 120 1.6 4.8 0.00 0.00 0.00 61 1009.8
20260505074138 20 172 1.6 8.0 0.00 0.00 0.00 61 1009.9
20260505073637 20 197 1.6 8.0 0.00 0.00 0.00 62 1009.9
20260505073135 20 308 0.0 4.8 0.00 0.00 0.00 63 1009.9
20260505072636 19 292 1.6 4.8 0.00 0.00 0.00 65 1010.0
20260505072135 19 189 1.6 6.4 0.00 0.00 0.00 66 1010.0
20260505071636 18 188 1.6 6.4 0.00 0.00 0.00 67 1010.0
20260505071404 18 121 0.0 1.6 0.00 0.00 0.00 68 1010.0
20260505070637 17 114 0.0 1.6 0.00 0.00 0.00 70 1010.0
20260505070409 17 79 0.0 3.2 0.00 0.00 0.00 70 1009.6
20260505065637 17 10 0.0 3.2 0.00 0.00 0.00 72 1010.1
20260505065135 16 28 0.0 3.2 0.00 0.00 0.00 73 1010.0
20260505064636 16 36 0.0 3.2 0.00 0.00 0.00 74 1010.1
20260505064135 16 40 0.0 3.2 0.00 0.00 0.00 76 1010.1
20260505063638 15 135 0.0 1.6 0.00 0.00 0.00 76 1010.1
20260505063135 15 143 0.0 3.2 0.00 0.00 0.00 77 1010.1
20260505062638 15 195 0.0 3.2 0.00 0.00 0.00 78 1010.1
20260505062114 15 198 0.0 3.2 0.00 0.00 0.00 79 1010.2
20260505061613 14 311 0.0 3.2 0.00 0.00 0.00 80 1010.2
20260505061113 14 309 0.0 3.2 0.00 0.00 0.00 81 1010.1
20260505060608 13 171 0.0 1.6 0.00 0.00 0.00 82 1010.2
20260505060355 12 172 0.0 1.6 0.00 0.00 0.00 83 1010.3
20260505060116 13 171 0.0 0.0 0.00 0.00 0.00 83 1010.2
20260505055055 12 172 0.0 1.6 0.00 0.00 0.00 83 1010.3
20260505054554 12 171 0.0 0.0 0.00 0.00 0.00 83 1010.5
20260505054039 12 171 0.0 0.0 0.00 0.00 0.00 83 1010.3
20260505053808 12 171 0.0 0.0 0.00 0.00 0.00 83 1010.3
20260505053028 12 171 0.0 0.0 0.00 0.00 0.00 83 1010.3
20260505052752 12 171 0.0 0.0 0.00 0.00 0.00 83 1010.3
20260505052015 12 171 0.0 0.0 0.00 0.00 0.00 83 1010.3
20260505051746 11 171 0.0 0.0 0.00 0.00 0.00 82 1010.2
20260505051013 11 171 0.0 0.0 0.00 0.00 0.00 82 1010.3
20260505050745 11 171 0.0 0.0 0.00 0.00 0.00 81 1010.3
20260505041435 12 171 0.0 1.6 0.00 0.00 0.00 77 1010.5
20260505040936 12 171 0.0 0.0 0.00 0.00 0.00 77 1010.3
20260505040435 12 171 0.0 0.0 0.00 0.00 0.00 77 1010.3
20260505035933 12 171 0.0 0.0 0.00 0.00 0.00 76 1010.3
20260505035425 12 171 0.0 0.0 0.00 0.00 0.00 76 1010.3
20260505034922 12 171 0.0 0.0 0.00 0.00 0.00 75 1010.5
20260505034415 12 171 0.0 0.0 0.00 0.00 0.00 75 1010.5
20260505034143 13 171 0.0 0.0 0.00 0.00 0.00 75 1010.6
20260505033657 13 171 0.0 0.0 0.00 0.00 0.00 74 1010.6
20260505032911 13 171 0.0 0.0 0.00 0.00 0.00 74 1010.6
20260505032339 13 171 0.0 0.0 0.00 0.00 0.00 74 1010.6
20260505031835 13 171 0.0 0.0 0.00 0.00 0.00 74 1010.6
20260505031610 13 171 0.0 0.0 0.00 0.00 0.00 74 1010.7
20260505030838 13 171 0.0 0.0 0.00 0.00 0.00 74 1010.7
20260505030609 13 171 0.0 0.0 0.00 0.00 0.00 74 1010.7
20260505025835 13 171 0.0 0.0 0.00 0.00 0.00 74 1010.7
20260505025610 14 171 0.0 0.0 0.00 0.00 0.00 74 1010.7
20260505024836 14 171 0.0 0.0 0.00 0.00 0.00 74 1010.7
20260505024337 14 171 0.0 0.0 0.00 0.00 0.00 74 1010.8
20260505024059 14 171 0.0 0.0 0.00 0.00 0.00 74 1010.8
20260505023335 14 171 0.0 0.0 0.00 0.00 0.00 75 1010.8
20260505022836 14 171 0.0 0.0 0.00 0.00 0.00 74 1010.8
20260505022336 14 171 0.0 1.6 0.00 0.00 0.00 75 1010.7
20260505021836 14 171 0.0 1.6 0.00 0.00 0.00 75 1010.7
20260505021327 14 171 0.0 1.6 0.00 0.00 0.00 74 1010.7
20260505020826 14 171 0.0 3.2 0.00 0.00 0.00 74 1010.7
20260505020317 15 171 0.0 3.2 0.00 0.00 0.00 74 1010.7
20260505015815 15 171 0.0 3.2 0.00 0.00 0.00 73 1010.8
20260505015307 15 171 0.0 4.8 0.00 0.00 0.00 73 1010.7
20260505014809 15 171 0.0 4.8 0.00 0.00 0.00 72 1010.8